Location: Breitenfeld
(46.8500°N, 15.6333°E)
Time: 18:56:34
(UTC+00:00)

Cosmos-2242 - Pass Details

Date: 09 April 2020
Orbit: 590 x 618 km, 82.5° (Epoch: 04 June)

Event Time Altitude Azimuth Distance (km) Brightness Sun altitude
Exits shadow 20:08:40 48° 50° (NE) 805 3.5 -23.4°
Drops below altitude 10° 20:12:06 10° 17° (NNE) 1,977 6.0 -23.9°
Sets 20:14:22 0° 13° (NNE) 2,891 6.9 -24.1°
